Weather History for Indianapolis, IN

Change the Weather History Date:

Tuesday, September 24, 2013

  Actual Average (KEYE) Record (KEYE)
Temperature  
Mean Temperature 59 °F 64 °F  
Max Temperature 75 °F 74 °F 91 °F (2007)
Min Temperature 43 °F 53 °F 37 °F (2012)
Degree Days  
Heating Degree Days 6 4  
Month to date heating degree days 29  
Since 1 July heating degree days 32  
Cooling Degree Days 0 2  
Month to date cooling degree days 112  
Year to date cooling degree days 1032  
Growing Degree Days 9 (Base 50)    
Moisture  
Dew Point 47 °F    
Average Humidity 66    
Maximum Humidity 90    
Minimum Humidity 41    
Precipitation  
Precipitation 0.00 in 0.06 in 0.33 in (2011)
Month to date precipitation 1.77  
Year to date precipitation 30.42  
Sea Level Pressure  
Sea Level Pressure 30.01 in    
Wind  
Wind Speed 3 mph (East)    
Max Wind Speed 9 mph    
Max Gust Speed -    
Visibility 10 miles    
Events      
T = Trace of Precipitation, MM = Missing Value Source: NWS Daily Summary

Daily Weather History Graph

Daily Weather History Graph

Search for Another Location

Airport:

Trip Planner

Search our weather history database for the weather conditions in past years. The results will help you decide how hot, cold, wet, or windy it might be!

Date:

Astronomy

Sep. 24, 2013 Rise Set
Actual Time 7:34 AM EDT 7:38 PM EDT
Civil Twilight 7:07 AM EDT 8:05 PM EDT
Nautical Twilight 6:36 AM EDT 8:36 PM EDT
Astronomical Twilight 6:04 AM EDT 9:08 PM EDT
Moon 10:55 PM EDT (9/24) 12:48 PM EDT (9/24)
Length of Visible Light 12h 57m
Length of Day
12h 03m
Waning Gibbous, 73% of the Moon is Illuminated
Sep 24
Waning Gibbous
Sep 26
Last Quarter
Oct 4
New
Oct 11
First Quarter
Oct 18
Full

Hourly Weather History & Observations

Time (EDT) Temp. Windchill Dew Point Humidity Pressure Visibility Wind Dir Wind Speed Gust Speed Precip Events Conditions
12:15 AM 51.3 °F - 45.5 °F 81% 30.06 in 10.0 mi East 3.5 mph - N/A   Clear
12:35 AM 50.2 °F - 45.1 °F 83% 30.06 in 10.0 mi East 3.5 mph - N/A   Clear
12:55 AM 50.2 °F - 45.3 °F 83% 30.06 in 10.0 mi East 4.6 mph - N/A   Clear
1:15 AM 50.4 °F - 45.0 °F 82% 30.06 in 10.0 mi East 4.6 mph - N/A   Clear
1:35 AM 50.2 °F - 45.0 °F 82% 30.06 in 10.0 mi East 4.6 mph - N/A   Clear
1:55 AM 49.5 °F - 44.6 °F 83% 30.06 in 10.0 mi East 3.5 mph - N/A   Clear
2:15 AM 49.3 °F - 44.6 °F 84% 30.06 in 10.0 mi East 3.5 mph - N/A   Clear
2:35 AM 46.8 °F - 42.4 °F 85% 30.07 in 10.0 mi Calm Calm - N/A   Clear
2:55 AM 46.0 °F - 42.6 °F 88% 30.07 in 10.0 mi Calm Calm - N/A   Clear
3:15 AM 46.8 °F - 43.3 °F 88% 30.07 in 10.0 mi ESE 3.5 mph - N/A   Clear
3:35 AM 46.9 °F - 43.3 °F 87% 30.07 in 10.0 mi East 3.5 mph - N/A   Clear
3:55 AM 46.2 °F - 42.4 °F 87% 30.07 in 10.0 mi Calm Calm - N/A   Clear
4:15 AM 46.0 °F - 42.6 °F 88% 30.07 in 10.0 mi Calm Calm - N/A   Clear
4:35 AM 45.9 °F - 42.6 °F 88% 30.07 in 10.0 mi Calm Calm - N/A   Clear
4:55 AM 46.6 °F - 43.2 °F 88% 30.07 in 10.0 mi East 3.5 mph - N/A   Clear
5:15 AM 46.0 °F - 42.4 °F 87% 30.07 in 10.0 mi Calm Calm - N/A   Clear
5:35 AM 46.2 °F 45.0 °F 42.8 °F 88% 30.07 in 10.0 mi East 3.5 mph - N/A   Clear
5:55 AM 45.0 °F - 41.5 °F 88% 30.08 in 7.0 mi Calm Calm - N/A   Clear
6:15 AM 43.9 °F - 40.6 °F 88% 30.08 in 7.0 mi Calm Calm - N/A   Clear
6:35 AM 44.8 °F - 41.7 °F 89% 30.08 in 7.0 mi Calm Calm - N/A   Clear
6:55 AM 44.8 °F - 41.9 °F 90% 30.09 in 7.0 mi Calm Calm - N/A   Clear
7:15 AM 44.6 °F - 41.4 °F 88% 30.09 in 10.0 mi Calm Calm - N/A   Clear
7:35 AM 44.1 °F - 41.0 °F 89% 30.09 in 7.0 mi Calm Calm - N/A   Clear
7:55 AM 43.7 °F - 40.8 °F 90% 30.09 in 7.0 mi Calm Calm - N/A   Clear
8:15 AM 45.1 °F - 42.3 °F 90% 30.09 in 7.0 mi Calm Calm - N/A   Clear
8:35 AM 47.5 °F - 44.6 °F 90% 30.09 in 10.0 mi ESE 3.5 mph - N/A   Clear
8:55 AM 49.5 °F - 46.4 °F 89% 30.08 in 10.0 mi ESE 4.6 mph - N/A   Clear
9:15 AM 51.8 °F - 47.3 °F 85% 30.08 in 10.0 mi ESE 4.6 mph - N/A   Clear
9:35 AM 54.1 °F - 47.7 °F 79% 30.08 in 10.0 mi ESE 5.8 mph - N/A   Clear
9:55 AM 56.3 °F - 47.5 °F 72% 30.07 in 10.0 mi East 5.8 mph - N/A   Clear
10:15 AM 58.3 °F - 47.5 °F 67% 30.07 in 10.0 mi ESE 5.8 mph - N/A   Clear
10:35 AM 60.1 °F - 47.3 °F 63% 30.07 in 10.0 mi East 8.1 mph - N/A   Clear
10:55 AM 61.7 °F - 47.5 °F 60% 30.06 in 10.0 mi SE 6.9 mph - N/A   Clear
11:15 AM 63.3 °F - 48.0 °F 57% 30.06 in 10.0 mi ESE 6.9 mph - N/A   Clear
11:35 AM 64.8 °F - 47.8 °F 54% 30.06 in 10.0 mi ESE 6.9 mph - N/A   Clear
11:55 AM 65.7 °F - 48.6 °F 54% 30.05 in 10.0 mi ESE 8.1 mph - N/A   Clear
12:15 PM 67.1 °F - 48.7 °F 52% 30.04 in 10.0 mi East 9.2 mph - N/A   Clear
12:35 PM 68.2 °F - 48.7 °F 50% 30.03 in 10.0 mi East 5.8 mph - N/A   Clear
12:55 PM 68.2 °F - 48.2 °F 49% 30.02 in 10.0 mi ESE 8.1 mph - N/A   Clear
1:15 PM 69.6 °F - 48.4 °F 47% 30.01 in 10.0 mi ESE 9.2 mph - N/A   Clear
1:55 PM 70.3 °F - 49.6 °F 48% 29.99 in 10.0 mi SSE 3.5 mph - N/A   Clear
2:15 PM 71.6 °F - 50.2 °F 47% 29.98 in 10.0 mi ESE 9.2 mph - N/A   Clear
2:35 PM 72.5 °F - 50.4 °F 46% 29.98 in 10.0 mi Calm Calm - N/A   Clear
2:55 PM 72.7 °F - 50.2 °F 45% 29.97 in 10.0 mi SE 4.6 mph - N/A   Clear
3:15 PM 73.4 °F - 49.8 °F 43% 29.97 in 10.0 mi SE 5.8 mph - N/A   Clear
3:35 PM 73.8 °F - 49.6 °F 43% 29.96 in 10.0 mi East 3.5 mph - N/A   Clear
3:55 PM 74.7 °F - 49.8 °F 42% 29.95 in 10.0 mi East 4.6 mph - N/A   Clear
4:15 PM 74.8 °F - 50.0 °F 42% 29.94 in 10.0 mi SE 4.6 mph - N/A   Clear
4:35 PM 74.7 °F - 49.6 °F 41% 29.94 in 10.0 mi Calm Calm - N/A   Clear
4:55 PM 75.0 °F - 49.8 °F 41% 29.94 in 10.0 mi SSE 6.9 mph - N/A   Clear
5:15 PM 74.8 °F - 49.8 °F 41% 29.94 in 10.0 mi Calm Calm - N/A   Clear
5:35 PM 75.2 °F - 50.2 °F 41% 29.94 in 10.0 mi SSE 3.5 mph - N/A   Clear
5:55 PM 75.2 °F - 50.7 °F 42% 29.94 in 10.0 mi SE 3.5 mph - N/A   Clear
6:15 PM 74.3 °F - 50.5 °F 43% 29.94 in 10.0 mi Calm Calm - N/A   Clear
6:35 PM 74.5 °F - 50.9 °F 43% 29.94 in 10.0 mi Calm Calm - N/A   Scattered Clouds
6:55 PM 71.2 °F - 52.0 °F 51% 29.93 in 10.0 mi ENE 3.5 mph - N/A   Scattered Clouds
7:15 PM 68.9 °F - 51.1 °F 53% 29.93 in 10.0 mi Calm Calm - N/A   Clear
7:35 PM 62.8 °F - 55.4 °F 77% 29.93 in 10.0 mi Calm Calm - N/A   Clear
7:55 PM 62.2 °F - 53.1 °F 72% 29.93 in 10.0 mi NE 5.8 mph - N/A   Clear
8:15 PM 65.5 °F - 50.0 °F 57% 29.93 in 10.0 mi ENE 4.6 mph - N/A   Scattered Clouds
8:35 PM 65.7 °F - 49.1 °F 55% 29.93 in 10.0 mi NE 4.6 mph - N/A   Clear
8:55 PM 63.7 °F - 48.9 °F 59% 29.93 in 10.0 mi ENE 4.6 mph - N/A   Clear
9:15 PM 63.5 °F - 48.0 °F 57% 29.94 in 10.0 mi ENE 4.6 mph - N/A   Clear
9:35 PM 63.5 °F - 47.1 °F 55% 29.93 in 10.0 mi ENE 5.8 mph - N/A   Clear
9:55 PM 63.5 °F - 46.8 °F 54% 29.93 in 10.0 mi East 4.6 mph - N/A   Clear
10:15 PM 62.6 °F - 46.6 °F 56% 29.94 in 10.0 mi East 3.5 mph - N/A   Clear
10:35 PM 62.1 °F - 46.6 °F 57% 29.93 in 10.0 mi East 4.6 mph - N/A   Clear
10:55 PM 61.7 °F - 46.4 °F 57% 29.94 in 10.0 mi ENE 3.5 mph - N/A   Clear
11:15 PM 61.2 °F - 46.4 °F 58% 29.94 in 10.0 mi ENE 3.5 mph - N/A   Clear
11:35 PM 60.8 °F - 46.4 °F 59% 29.94 in 10.0 mi ENE 3.5 mph - N/A   Clear
11:55 PM 59.4 °F - 46.6 °F 63% 29.94 in 10.0 mi ENE 3.5 mph - N/A   Clear